Weather History for Joplin, MO

Change the Weather History Date:

Monday, August 26, 2013

  Actual Average Record
Temperature  
Mean Temperature 82 °F 78 °F  
Max Temperature 91 °F 90 °F 101 °F (1983)
Min Temperature 73 °F 67 °F 51 °F (1962)
Degree Days  
Heating Degree Days 0 0  
Month to date heating degree days 0 0  
Since 1 June heating degree days 12 5  
Since 1 July heating degree days 0 0  
Cooling Degree Days 17 13  
Month to date cooling degree days 297 395  
Year to date cooling degree days 1172 1366  
Since 1 June cooling degree days 1028 1186  
Growing Degree Days 32 (Base 50)    
Moisture  
Dew Point 70 °F    
Average Humidity 69    
Maximum Humidity 87    
Minimum Humidity 50    
Precipitation  
Precipitation 0.00 in 0.13 in 3.16 in (1950)
Month to date precipitation 4.60 2.73  
Year to date precipitation 35.46 30.35  
Sea Level Pressure  
Sea Level Pressure 30.14 in    
Wind  
Wind Speed 8 mph (SSW)    
Max Wind Speed 15 mph    
Max Gust Speed 20 mph    
Visibility 10 miles    
Events      
T = Trace of Precipitation, MM = Missing Value Source: NWS Daily Summary

Daily Weather History Graph

Daily Weather History Graph

Search for Another Location

Airport:

Trip Planner

Search our weather history database for the weather conditions in past years. The results will help you decide how hot, cold, wet, or windy it might be!

Date:

Astronomy

Aug. 26, 2013 Rise Set
Actual Time 6:43 AM CDT 7:54 PM CDT
Civil Twilight 6:16 AM CDT 8:21 PM CDT
Nautical Twilight 5:44 AM CDT 8:53 PM CDT
Astronomical Twilight 5:11 AM CDT 9:27 PM CDT
Moon 11:15 PM CDT (8/26) 12:36 PM CDT (8/26)
Length of Visible Light 14h 04m
Length of Day
13h 10m
Waning Gibbous, 66% of the Moon is Illuminated
Aug 26
Waning Gibbous
Aug 28
Last Quarter
Sep 5
New
Sep 12
First Quarter
Sep 19
Full

Hourly Weather History & Observations

Time (CDT) Temp. Heat Index Dew Point Humidity Pressure Visibility Wind Dir Wind Speed Gust Speed Precip Events Conditions
12:53 AM 75.0 °F - 68.0 °F 79% 30.17 in 10.0 mi South 5.8 mph - N/A   Clear
1:53 AM 75.9 °F - 69.1 °F 79% 30.15 in 10.0 mi SSE 9.2 mph - N/A   Clear
2:53 AM 75.9 °F - 69.1 °F 79% 30.16 in 10.0 mi SSE 9.2 mph - N/A   Clear
3:53 AM 73.9 °F - 69.1 °F 85% 30.17 in 10.0 mi South 6.9 mph - N/A   Clear
4:53 AM 73.9 °F - 69.1 °F 85% 30.15 in 10.0 mi SSE 8.1 mph - N/A   Clear
5:53 AM 73.9 °F - 69.1 °F 85% 30.16 in 10.0 mi South 8.1 mph - N/A   Clear
6:53 AM 73.0 °F - 69.1 °F 87% 30.17 in 10.0 mi South 8.1 mph - N/A   Clear
7:53 AM 75.9 °F - 69.1 °F 79% 30.18 in 10.0 mi South 10.4 mph - N/A   Clear
8:53 AM 80.1 °F 83.2 °F 70.0 °F 71% 30.19 in 10.0 mi SSW 9.2 mph - N/A   Clear
9:53 AM 82.9 °F 87.0 °F 70.0 °F 65% 30.19 in 10.0 mi SSW 10.4 mph - N/A   Clear
10:53 AM 84.9 °F 89.4 °F 70.0 °F 61% 30.20 in 10.0 mi SW 9.2 mph - N/A   Clear
11:53 AM 87.1 °F 92.0 °F 70.0 °F 57% 30.19 in 10.0 mi WSW 9.2 mph 18.4 mph N/A   Clear
12:53 PM 89.1 °F 94.1 °F 70.0 °F 53% 30.17 in 10.0 mi WSW 11.5 mph - N/A   Clear
1:53 PM 89.1 °F 94.1 °F 70.0 °F 53% 30.16 in 10.0 mi SW 8.1 mph 17.3 mph N/A   Scattered Clouds
2:53 PM 90.0 °F 95.4 °F 70.0 °F 52% 30.13 in 10.0 mi SSW 12.7 mph 19.6 mph N/A   Scattered Clouds
3:53 PM 90.0 °F 94.5 °F 69.1 °F 50% 30.11 in 10.0 mi SSW 6.9 mph - N/A   Scattered Clouds
4:53 PM 90.0 °F 93.6 °F 68.0 °F 48% 30.10 in 10.0 mi SSW 10.4 mph - N/A   Clear
5:53 PM 89.1 °F 93.7 °F 69.1 °F 52% 30.09 in 10.0 mi SSW 8.1 mph - N/A   Clear
6:53 PM 87.1 °F 91.3 °F 69.1 °F 55% 30.09 in 10.0 mi SW 8.1 mph - N/A   Clear
7:53 PM 84.0 °F 88.4 °F 70.0 °F 63% 30.09 in 10.0 mi SSW 4.6 mph - N/A   Partly Cloudy
8:53 PM 80.1 °F 83.2 °F 70.0 °F 71% 30.10 in 10.0 mi Calm Calm - N/A   Partly Cloudy
9:53 PM 78.1 °F - 71.1 °F 79% 30.10 in 10.0 mi Calm Calm - N/A   Clear
10:53 PM 75.0 °F - 71.1 °F 87% 30.10 in 10.0 mi South 4.6 mph - N/A   Clear
11:53 PM 75.0 °F - 70.0 °F 84% 30.09 in 10.0 mi South 4.6 mph - N/A   Clear